Find Kineis-1B

NORAD ID: 60079 Int'l Des: 2024-114 Owner: KINEIS Country: F operational
LEOCIRCULARRETROGRADESSO

当前视图

正在加载3D地球...

About Kineis-1B

Kineis-1B (NORAD 60079) is a satellite launched Jun 20, 2024 by KINEIS of F. It operates in LEO, CIRCULAR, RETROGRADE, SSO orbit with a mass of 28.00 kg.

即将过境

Passes for default location (London). Set your location on the main map for personalized predictions.

高度历史

Loading altitude history...

两行轨道根数

1 60079U 24114A 26195.55670714 .00000374 00000-0 55576-4 0 9998
2 60079 97.9828 219.6114 0003010 40.0709 320.0725 14.80666610111454
Epoch: Jul 14, 2026 • Age: 9 hours

当前状态

高度 632.5 km
远地点 / 近地点 N/A
速度 7.54 km/s
星下点 -3.60°S, 132.24°E
发射日期 Jun 20, 2024
运行时间 2 years
类型 other

技术详情

分类 Payload
质量 28.00 kg
干质量 28.00 kg
总质量 28.00 kg
长度 0.40 m
直径 0.20 m
跨度 1.60 m
形状 Box+ 2 pan + ant
制造商 KINEIS
平台类型 Cubesat 16U
阶段状态 In Orbit
所有者/国家 KINEIS/F

Most Searched